This demonstration page uses our WeatherBlox Daily Observations layout. Learn more.

Left ArrowRight Arrow

Hourly Observations for June 8, 2021

Temp ( °F °C ) Dew Point ( °F °C ) Humidity (%) Winds ( mph kmh ) Pressure ( in mb ) Visibility ( mi km ) Precip ( " mm )
12:53 am 00:53 Partly Cloudy 72 22.2 70 21.1 94 94 N N/A 30.05 1018 10 16 N/A
1:53 am 01:53 Mostly Cloudy 73 22.8 70 21.1 90 90 N N/A 30.04 1017 10 16 N/A
2:20 am 02:20 Mostly Cloudy 73 22.8 70 21.1 90 90 N N/A 30.03 1017 10 16 N/A
2:31 am 02:31 Mostly Cloudy 73 22.8 70 21.1 90 90 N N/A 30.04 1017 10 16 N/A
2:53 am 02:53 Mostly Cloudy 72 22.2 70 21.1 94 94 N N/A 30.03 1017 10 16 N/A
3:53 am 03:53 Clear 71 21.7 69 20.6 94 94 N N/A 30.02 1017 10 16 N/A
4:53 am 04:53 Clear 70 21.1 69 20.6 97 97 N N/A 30.03 1017 9 14 N/A
5:53 am 05:53 Clear 69 20.6 67 19.4 93 93 N N/A 30.04 1017 8 13 N/A
6:53 am 06:53 Sunny 69 20.6 69 20.6 100 100 N N/A 30.06 1018 7 11 N/A
7:53 am 07:53 Partly Cloudy 72 22.2 70 21.1 94 94 N N/A 30.09 1019 9 14 N/A
8:53 am 08:53 Cloudy 73 22.8 70 21.1 90 90 N N/A 30.09 1019 10 16 N/A
9:53 am 09:53 Partly Cloudy 76 24.4 70 21.1 82 82 N N/A 30.10 1019 10 16 N/A
10:53 am 10:53 Partly Cloudy 79 26.1 70 21.1 74 74 N N/A 30.09 1019 10 16 N/A
11:53 am 11:53 Mostly Cloudy 81 27.2 71 21.7 72 72 N N/A 30.10 1019 10 16 N/A
12:07 pm 12:07 Mostly Cloudy 81 27.2 71 21.7 72 72 N N/A 30.08 1019 10 16 N/A
12:38 pm 12:38 Mostly Cloudy 81 27.2 71 21.7 72 72 NW 3 6 30.07 1018 10 16 N/A
12:53 pm 12:53 Mostly Cloudy 81 27.2 72 22.2 74 74 N N/A 30.09 1019 10 16 N/A
1:53 pm 13:53 Mostly Cloudy 81 27.2 71 21.7 72 72 VRB 6 9 30.08 1019 10 16 N/A
2:53 pm 14:53 Sunny 80 26.7 72 22.2 76 76 WSW 7 11 30.07 1018 10 16 N/A
3:29 pm 15:29 Mostly Cloudy 79 26.1 70 21.1 74 74 VRB 5 7 30.05 1018 10 16 N/A
3:44 pm 15:44 Partly Cloudy 79 26.1 70 21.1 74 74 VRB 3 6 30.05 1018 10 16 N/A
3:53 pm 15:53 Mostly Sunny 79 26.1 69 20.6 72 72 N N/A 30.06 1018 10 16 N/A
4:53 pm 16:53 Partly Cloudy 79 26.1 70 21.1 74 74 WSW 3 6 30.07 1018 10 16 N/A
5:53 pm 17:53 Mostly Sunny 78 25.6 70 21.1 76 76 SW 5 7 30.06 1018 10 16 N/A
6:53 pm 18:53 Mostly Cloudy with Light Rain 74 23.3 69 20.6 85 85 VRB 3 6 30.06 1018 8 13 0.01 0.25
7:53 pm 19:53 Mostly Cloudy 72 22.2 69 20.6 91 91 N N/A 30.05 1018 10 16 0.00 0.00
8:53 pm 20:53 Mostly Sunny 71 21.7 69 20.6 94 94 N N/A 30.05 1018 10 16 0.00 0.00
9:53 pm 21:53 Clear with Light Rain 71 21.7 69 20.6 94 94 N N/A 30.06 1018 10 16 0.00 0.00
10:53 pm 22:53 Partly Cloudy with Light Rain 70 21.1 69 20.6 97 97 N N/A 30.08 1019 9 14 0.01 0.25
11:53 pm 23:53 Mostly Cloudy 71 21.7 70 21.1 96 96 N N/A 30.08 1019 8 13 0.00 0.00

Powered by AerisWeather